Back to catalog

DELTA 1 DEB

AliveSSO
NORAD 8685·DEBRIS·🇺🇸 United States

Launched Jan 22, 1975 from Vandenberg Space Force Base

Loading…

Next Passes (next 24 hours)

TLE

FreshSource: Space-Track

Epoch: Sep 14, 2026, 11:41 UTC

1 08685U 75004M   26257.48687824  .00000234  00000-0  66066-4 0  9999
2 08685  97.9561 332.2205 0046556  11.6812 348.5454 14.53234282722051

Track DELTA 1 DEB in real time with AllMySat

Download on the App Store